TimeCST,TemperatureF,Dew PointF,Humidity,Sea Level PressureIn,VisibilityMPH,Wind Direction,Wind SpeedMPH,Gust SpeedMPH,PrecipitationIn,Events,Conditions,WindDirDegrees,DateUTC
12:53 AM,-20.9,-27.9,70,30.33,10.0,Calm,Calm,-,N/A,,Clear,0,2013-01-22 06:53:00
1:53 AM,-22.0,-29.0,70,30.35,10.0,Calm,Calm,-,N/A,,Clear,0,2013-01-22 07:53:00
2:53 AM,-23.1,-29.9,70,30.36,10.0,Calm,Calm,-,N/A,,Clear,0,2013-01-22 08:53:00
3:53 AM,-20.9,-27.0,73,30.37,10.0,Calm,Calm,-,N/A,,Clear,0,2013-01-22 09:53:00
4:53 AM,-18.9,-26.0,70,30.38,10.0,Calm,Calm,-,N/A,,Clear,0,2013-01-22 10:53:00
5:53 AM,-20.0,-26.0,74,30.40,10.0,Calm,Calm,-,N/A,,Clear,0,2013-01-22 11:53:00
6:53 AM,-20.0,-27.0,70,30.40,10.0,Calm,Calm,-,N/A,,Clear,0,2013-01-22 12:53:00
7:53 AM,-23.1,-31.0,67,30.41,10.0,Calm,Calm,-,N/A,,Clear,0,2013-01-22 13:53:00
8:53 AM,-17.0,-23.1,74,30.40,10.0,WSW,4.6,-,N/A,,Clear,250,2013-01-22 14:53:00
9:53 AM,-13.0,-20.0,71,30.42,10.0,Calm,Calm,-,N/A,,Clear,0,2013-01-22 15:53:00
10:53 AM,-9.0,-18.9,62,30.42,10.0,Variable,3.5,-,N/A,,Clear,0,2013-01-22 16:53:00
11:53 AM,-7.1,-18.0,59,30.39,10.0,South,3.5,-,N/A,,Clear,190,2013-01-22 17:53:00
12:53 PM,-4.0,-17.0,54,30.38,10.0,Variable,4.6,-,N/A,,Clear,0,2013-01-22 18:53:00
1:53 PM,-4.0,-17.0,54,30.37,10.0,Variable,4.6,-,N/A,,Clear,0,2013-01-22 19:53:00
2:53 PM,-2.0,-17.0,49,30.36,10.0,SW,8.1,-,N/A,,Clear,230,2013-01-22 20:53:00
3:53 PM,-2.0,-16.1,51,30.37,10.0,SW,6.9,-,N/A,,Clear,230,2013-01-22 21:53:00
4:53 PM,-4.0,-16.1,56,30.36,10.0,Variable,4.6,-,N/A,,Clear,0,2013-01-22 22:53:00
5:53 PM,-5.1,-16.1,59,30.37,10.0,Variable,4.6,-,N/A,,Clear,0,2013-01-22 23:53:00
6:53 PM,-6.0,-16.1,62,30.35,10.0,SW,4.6,-,N/A,,Clear,230,2013-01-23 00:53:00
7:53 PM,-7.1,-17.0,62,30.34,10.0,Calm,Calm,-,N/A,,Clear,0,2013-01-23 01:53:00
8:53 PM,-9.9,-17.0,71,30.33,10.0,Calm,Calm,-,N/A,,Clear,0,2013-01-23 02:53:00
9:53 PM,-8.0,-16.1,68,30.32,10.0,Calm,Calm,-,N/A,,Clear,0,2013-01-23 03:53:00
10:53 PM,-13.0,-18.0,78,30.32,10.0,Calm,Calm,-,N/A,,Clear,0,2013-01-23 04:53:00
11:53 PM,-15.0,-20.9,75,30.30,10.0,Calm,Calm,-,N/A,,Clear,0,2013-01-23 05:53:00